Regional Weather Roundup
Issued by NWS Upton, NY

Current Version | Previous Version | Graphics & Text | Print | Product List | Glossary Off
Versions: 1 2 3 4 5 6 7 8 9 10 11 12 13 14 15 16 17 18 19 20 21 22 23 24 25 26 27 28 29 30 31 32 33 34 35 36 37 38 39 40 41 42 43 44 45 46 47 48 49 50

673
ASUS41 KOKX 262205
RWROKX

REGIONAL WEATHER ROUNDUP
NATIONAL WEATHER SERVICE NEW YORK NY
600 PM EDT THU MAY 26 2016

NOTE: "FAIR" INDICATES FEW OR NO CLOUDS BELOW 12,000 FEET WITH NO
SIGNIFICANT WEATHER AND/OR OBSTRUCTIONS TO VISIBILITY.

NYZ071-072-176-178-NJZ106-104-262300-
NEW YORK CITY METRO AREA


CITY           SKY/WX    TMP DP  RH WIND       PRES   REMARKS
CENTRAL PARK   MOSUNNY   83  47  28 VRB3      30.06F
LAGUARDIA APRT PTSUNNY   86  53  32 S17       30.02F
KENNEDY INTL   PTSUNNY   77  50  38 S20       30.05F
NEWARK/LIBERTY PTSUNNY   87  48  25 SE13      30.02F
BRNX BOT. GARD   N/A     82  48  30 SE12      30.05S
TETERBORO      MOSUNNY   88  45  22 S12       30.01S
$$

NYZ177-179-078>081-262300-
LONG ISLAND NEW YORK

CITY           SKY/WX    TMP DP  RH WIND       PRES   REMARKS
FARMINGDALE    SUNNY     79  51  37 S14       30.05F
ISLIP          PTSUNNY   78  52  40 SW13      30.05F
SHIRLEY        SUNNY     78  54  43 S8        30.07S
RIVERHEAD        N/A     84  57  39 W1        30.04F
WESTHAMPTON    MOSUNNY  N/A N/A N/A SW8       30.07F
EAST HAMPTON   FAIR      74  55  49 SW7       30.06S
MONTAUK POINT    N/A     71  57  61 S5        30.07F
$$

NYZ052-065-067-262300-
HUDSON VALLEY

CITY           SKY/WX    TMP DP  RH WIND       PRES   REMARKS
WHITE PLAINS   MOSUNNY   81  51  35 S8        30.04S
NEWBURGH       CLOUDY    84  57  39 CALM      30.03
MONTGOMERY     PTSUNNY   87  57  35 SW7       30.00F
POUGHKEEPSIE   CLOUDY    88  56  33 SE3       30.00F
ALBANY         CLOUDY    85  53  33 S9        30.01F
$$

NJZ001-105-106-008-010-013-015-019>022-104-262300-
NEW JERSEY

CITY           SKY/WX    TMP DP  RH WIND       PRES   REMARKS
NEWARK/LIBERTY PTSUNNY   87  48  25 SE13      30.02F
TETERBORO      MOSUNNY   88  45  22 S12       30.01S
CALDWELL       MOSUNNY   89  50  26 CALM      30.02F
MORRISTOWN     PTSUNNY   88  52  29 SW8       30.03F
SOMERVILLE     MOSUNNY   87  53  31 S5        30.01F
SUSSEX         CLOUDY    86  54  33 SW7       30.03F
ANDOVER          N/A     86  53  32 VRB7      30.04F
TRENTON        SUNNY     88  50  27 SW7       30.02F
MILLVILLE      SUNNY     83  53  35 S10       30.05F
ATLANTIC CITY  SUNNY     83  50  31 S12       30.06S
WRIGHTSTOWN    SUNNY     88  54  31 W8        30.00F
TOMS RIVER     SUNNY     86  50  28 S12       30.04S
BELMAR         MOSUNNY   83  54  36 SE8       30.05F
$$

PAZ047>061-062-071-262300-
EASTERN PENNSYLVANIA

CITY           SKY/WX    TMP DP  RH WIND       PRES   REMARKS
PHILADELPHIA   MOSUNNY   88  55  32 SW9       30.03F
ALLENTOWN      MOSUNNY   87  54  32 S10       30.02F
SCRANTON       PTSUNNY   85  56  37 W10       30.03F
$$

CTZ002-004>006-009-010-012-RIZ004-006-007-MAZ004-011-015-262300-
SOUTHERN NEW ENGLAND
 IN CT

CITY           SKY/WX    TMP DP  RH WIND       PRES   REMARKS
BRADLEY INTL   PTSUNNY   87  55  33 S9        30.01F
HARTFORD       CLOUDY    88  56  33 S8        30.01F
DANBURY        MOSUNNY   84  52  33 S9        30.05S
WTRBRY/OXFORD  PTSUNNY   82  55  39 S9        30.07F
BRIDGEPORT     MOSUNNY   78  62  57 VRB5      30.03F
MERIDEN          N/A     86  56  35 S8        30.03S
NEW HAVEN      MOSUNNY   80  56  43 SE5       30.04S
CHESTER        FAIR      84  55  37 S6        30.05F
GROTON         MOSUNNY   69  59  70 CALM      30.05S
WILLIMANTIC    CLOUDY    86  54  33 S9        30.03F

 IN RI

CITY           SKY/WX    TMP DP  RH WIND       PRES   REMARKS
PROVIDENCE     PTSUNNY   85  52  32 SW12G18   30.04S
BLOCK ISLAND   MOSUNNY   70  56  61 SW12      30.07S
WESTERLY       MOSUNNY   77  54  44 W3        30.06F

 IN MA

CITY           SKY/WX    TMP DP  RH WIND       PRES   REMARKS
BOSTON         CLOUDY    64  56  75 E10       30.05S
WORCESTER      MOSUNNY   83  51  33 W9        30.06S
WESTFIELD      SUNNY     86  56  35 S12       30.01F
PROVINCETOWN   CLOUDY    67  55  65 SE13      30.08S
NANTUCKET      CLOUDY    63  55  75 S5        30.09S
$$

ANZ330-335-338-340-345-350-353-355-262300-
COASTAL MARINE OBSERVATIONS


STATION/POSITION TIME  SKY/WX   TEMP    WIND        PRES    VSBY  WAVE
                                AIR SEA DIR/SP/G                  HT/PER
                 (UTC)          (F)     (DEG/KT/KT) (MB)    (MI)  (FT/S)
NY HARB ENTRANCE 2050            66 62  190/ 10/ 12 1017.5          2/ 7
20S FIRE ISLAND  2050            64 60  200/ 12/ 12 1017.8          2/ 8
GREAT SOUTH BAY  2100            70 69  230/ 14/ 16   N/A
23 SSW MONTAUK P 2150            62 58  210/ 10/ 12 1017.8          2/ 8
15 E BARNEGAT LI 2122               58                N/A           2/ 8
HUDSON CANYON    2050            60 58              1019.3          2/ 9
KINGS POINT      2100            76 61              1017.0
EXECUTION ROCKS  NOT AVBL
CENTRAL LI SOUND 2100            70     140/  4/  4   N/A           0
EASTERN LI SOUND 2100            62 53  190/  6/  8   N/A
ROBBINS REEF     2100            79     160/ 14/ 15 1016.6
$$


>>>>>>>>>>>>>>>>>>>>>>>>>>>> KEY <<<<<<<<<<<<<<<<<<<<<<<<<<<
>                                                          <
>     SKY/WX - SKY CONDITION/PRESENT WEATHER               <
>     TMP    - TEMPERATURE IN FAHRENHEIT                   <
>     DP     - DEWPOINT IN FAHRENHEIT                      <
>     RH     - RELATIVE HUMIDITY IN PERCENT                <
>     WIND   - DIRECTION AND SPEED IN MPH                  <
>     PRES   - MEAN SEA LEVEL PRESSURE IN INCHES OF HG     <
>     WCI    - WIND CHILL INDEX                            <
>     VSB    - VISIBILITY IN MILES                         <
>     HX     - HEAT INDEX                                  <
>     TC     - TEMPERATURE IN CELSIUS                      <
>     VRB    - VARIABLE WIND DIRECTION                     <
>                                                          <
>>>>>>>>>>>>>>>>>>>>>>>>>>>> KEY <<<<<<<<<<<<<<<<<<<<<<<<<<<






USA.gov is the U.S. government's official web portal to all federal, state and local government web resources and services.